STARLINK-35545, 66109

Orbit data source: Space-Track

STARLINK-35545, 66109 is a payload satellite owned by SpaceX/Seattle (US) in LEO that was launched on Sun, 19 Oct 2025 UTC via an FALCON 9 launch vehicle from the Air Force Western Test Range (AFWTR). Payload-class satellites include a variety of spacecraft equipped with specific instruments for various scientific and technological missions. These include communications satellites like Starlink; space stations such as the ISS; scientific satellites like the Hubble; Earth observation satellites from companies like Planet Labs, Umbra, and HawkEye 360; GPS; miniature CubeSats for education and research; and military/defense satellites.

Loading next visibility...
Identifier
66109, 2025-236Z
Orbit
LEO
Country
Flag of USUS
Related business
Manufacturer
SpaceX/Seattle
Mission
Operational Commercial Communications
Bus & Motor
STARLINK V2MO, Unknown motor
Mass
575 kg wet, ~530 kg dry
Launch date (UTC)
2025-10-19 (8 months ago)
Launch vehicle
FALCON 9
Launch site
Air Force Western Test Range (AFWTR)
Object type
Payload
Rocket body
Debris
Shape & HBR
Box + 2 Pan, 17.7 m
Radar Cross Section
36.964 m², Large (>1 m²)

Expand to show TLE details & history
Last TLE update: 1 day ago

TLE from 1 day ago
0 STARLINK-35545
1 66109U 25236Z   26170.78966546  .00016493  00000-0  49824-3 0  9990
2 66109  53.1610 349.1239 0001193  94.7893 265.3246 15.34396698 38581
Epoch: 2026-06-19T18:57Z
TLE epoch observation values (Epoch: 2026-06-19T18:57:07.095Z)
Latitude
-0.00002°
Longitude
156.83072°
Altitude
463.681 km
Speed
7.636 km/s
True Right ascension
23h 16m 29s
True Declination
0° 00' 00"
Sunlit
Object was in daylight at epoch
Visualization orbit readout
Latitude
Unknown
Longitude
Unknown
Altitude
Unknown
Speed
Unknown
Apparent Right ascension
Unknown
Apparent Declination
Unknown
Sunlit
N/A
Visualization observer readout
Local Sidereal Time
08:42:39
Azimuth
Unknown
Elevation
Unknown
Doppler factor
Unknown
Orbital elements
Apogee altitude
463.786 km
Perigee altitude
462.154 km
Semi-major axis
6,841.107 km
Eccentricity
0.00012
Inclination
53.161°
RAAN
349.1239°
Arg. of periapsis
94.7893°
True anomaly
265.31097°
Mean anomaly
265.3246°
Eccentric anomaly
265.31779°
Mean motion
3.83578 °/min
Orbital period
93.85 mins
BSTAR
0.00049824
Loading maneuver chart data...
Computing Atmospheric mass density...
Loading historical data...
Loading historical data...
Loading historical data...
Loading historical data...
Loading historical data...
Loading historical data...
Loading historical data...

Documentation

Showing up to 5 results
|